• In Österreich
  • Länderverzeichnis
  • Für 7 Tage
  • Wassertemperatur
  • Satellitenkarten
  • Wetterkarte
  • News
  • Widgets
  • user-avatar
    Anmelden

    Stündliche Wetter Oran

    Heute, 22 Mai, Dienstag

    Zeit Temperatur Niederschläge Wind Luftdruck Luftfeuchtigkeit
    00:00 +20°C° 0 mm 1 m/S 750 mmHg 70%
    01:00 +19°C° 0 mm 1 m/S 750 mmHg 70%
    02:00 +19°C° 0 mm 1 m/S 750 mmHg 71%
    03:00 +18°C° 0 mm 2 m/S 750 mmHg 72%
    04:00 +19°C° 0 mm 1 m/S 750 mmHg 69%
    05:00 +20°C° 0 mm 1 m/S 750 mmHg 66%
    06:00 +21°C° 0 mm 1 m/S 750 mmHg 58%
    07:00 +22°C° 0 mm 1 m/S 751 mmHg 53%
    08:00 +23°C° 0 mm 1 m/S 751 mmHg 47%
    09:00 +24°C° 0 mm 1 m/S 751 mmHg 41%
    10:00 +25°C° 0 mm 1 m/S 751 mmHg 38%
    11:00 +26°C° 0 mm 2 m/S 751 mmHg 36%
    12:00 +27°C° 0 mm 2 m/S 751 mmHg 33%
    13:00 +28°C° 0 mm 3 m/S 751 mmHg 33%
    14:00 +28°C° 0 mm 3 m/S 751 mmHg 32%
    15:00 +28°C° 0 mm 3 m/S 751 mmHg 32%
    16:00 +28°C° 0 mm 3 m/S 751 mmHg 34%
    17:00 +27°C° 0 mm 3 m/S 750 mmHg 36%
    18:00 +27°C° 0 mm 3 m/S 750 mmHg 38%
    19:00 +26°C° 0 mm 3 m/S 750 mmHg 42%
    20:00 +25°C° 0 mm 3 m/S 751 mmHg 46%
    21:00 +24°C° 0 mm 3 m/S 751 mmHg 49%
    22:00 +22°C° 0 mm 3 m/S 751 mmHg 50%
    23:00 +23°C° 0 mm 2 m/S 751 mmHg 52%

    Morgen, 23 Mai, Mittwoch

    Zeit Temperatur Niederschläge Wind Luftdruck Luftfeuchtigkeit
    00:00 +21°C° 0 mm 2 m/S 751 mmHg 53%
    01:00 +21°C° 0 mm 2 m/S 751 mmHg 53%
    02:00 +21°C° 0 mm 2 m/S 751 mmHg 54%
    03:00 +21°C° 0 mm 2 m/S 751 mmHg 55%
    04:00 +21°C° 0 mm 3 m/S 751 mmHg 53%
    05:00 +22°C° 0 mm 3 m/S 751 mmHg 52%
    06:00 +22°C° 0 mm 3 m/S 751 mmHg 51%
    07:00 +25°C° 0 mm 4 m/S 751 mmHg 44%
    08:00 +28°C° 0 mm 4 m/S 751 mmHg 37%
    09:00 +30°C° 0 mm 5 m/S 751 mmHg 30%
    10:00 +33°C° 0 mm 5 m/S 751 mmHg 27%
    11:00 +34°C° 0 mm 6 m/S 750 mmHg 23%
    12:00 +36°C° 0 mm 6 m/S 750 mmHg 20%
    13:00 +36°C° 0 mm 7 m/S 750 mmHg 21%
    14:00 +36°C° 0 mm 7 m/S 749 mmHg 21%
    15:00 +37°C° 0 mm 8 m/S 748 mmHg 22%
    16:00 +37°C° 0 mm 8 m/S 748 mmHg 24%
    17:00 +35°C° 0 mm 8 m/S 748 mmHg 27%
    18:00 +34°C° 0 mm 7 m/S 748 mmHg 29%
    19:00 +33°C° 0 mm 7 m/S 748 mmHg 31%
    20:00 +32°C° 0 mm 6 m/S 748 mmHg 33%
    21:00 +30°C° 0 mm 5 m/S 748 mmHg 35%
    22:00 +28°C° 0 mm 6 m/S 748 mmHg 41%
    23:00 +27°C° 0 mm 6 m/S 748 mmHg 46%

    übermorgen, 24 Mai, Donnerstag

    Zeit Temperatur Niederschläge Wind Luftdruck Luftfeuchtigkeit
    00:00 +26°C° 0 mm 6 m/S 747 mmHg 52%
    01:00 +25°C° 0 mm 5 m/S 747 mmHg 57%
    02:00 +23°C° 0 mm 5 m/S 747 mmHg 62%
    03:00 +22°C° 0 mm 4 m/S 747 mmHg 66%
    04:00 +22°C° 0 mm 4 m/S 747 mmHg 67%
    05:00 +22°C° 0 mm 4 m/S 747 mmHg 68%
    06:00 +22°C° 0 mm 4 m/S 747 mmHg 68%
    07:00 +25°C° 0 mm 4 m/S 748 mmHg 60%
    08:00 +27°C° 0 mm 5 m/S 748 mmHg 53%
    09:00 +29°C° 0 mm 6 m/S 748 mmHg 45%
    10:00 +29°C° 0 mm 6 m/S 748 mmHg 47%
    11:00 +29°C° 0 mm 6 m/S 748 mmHg 49%
    12:00 +29°C° 0 mm 6 m/S 748 mmHg 51%
    13:00 +28°C° 0 mm 6 m/S 747 mmHg 53%
    14:00 +28°C° 0 mm 6 m/S 747 mmHg 54%
    15:00 +27°C° 0 mm 6 m/S 747 mmHg 55%
    16:00 +26°C° 0 mm 6 m/S 747 mmHg 57%
    17:00 +24°C° 0 mm 6 m/S 747 mmHg 59%
    18:00 +23°C° 0 mm 6 m/S 747 mmHg 62%
    19:00 +23°C° 0 mm 6 m/S 748 mmHg 64%
    20:00 +22°C° 0 mm 5 m/S 748 mmHg 67%
    21:00 +21°C° 0 mm 5 m/S 749 mmHg 70%
    22:00 +21°C° 0 mm 5 m/S 749 mmHg 71%
    23:00 +20°C° 0 mm 5 m/S 749 mmHg 72%

    25 Mai, Freitag

    Zeit Temperatur Niederschläge Wind Luftdruck Luftfeuchtigkeit
    00:00 +20°C° 0 mm 5 m/S 750 mmHg 73%
    01:00 +20°C° 0 mm 4 m/S 749 mmHg 74%
    02:00 +19°C° 0 mm 4 m/S 749 mmHg 74%
    03:00 +19°C° 0 mm 4 m/S 749 mmHg 75%
    04:00 +19°C° 0 mm 4 m/S 749 mmHg 72%
    05:00 +20°C° 0 mm 4 m/S 749 mmHg 69%
    06:00 +20°C° 0 mm 4 m/S 749 mmHg 67%
    07:00 +21°C° 0 mm 4 m/S 749 mmHg 58%
    08:00 +23°C° 0 mm 4 m/S 749 mmHg 50%
    09:00 +25°C° 0 mm 4 m/S 749 mmHg 41%
    10:00 +26°C° 0 mm 5 m/S 749 mmHg 38%
    11:00 +27°C° 0 mm 5 m/S 749 mmHg 35%
    12:00 +28°C° 0 mm 5 m/S 749 mmHg 32%
    13:00 +28°C° 0 mm 5 m/S 749 mmHg 33%
    14:00 +28°C° 0 mm 6 m/S 748 mmHg 33%
    15:00 +28°C° 0 mm 6 m/S 748 mmHg 33%
    16:00 +27°C° 0 mm 5 m/S 748 mmHg 37%
    17:00 +26°C° 0 mm 4 m/S 748 mmHg 40%
    18:00 +25°C° 0 mm 3 m/S 748 mmHg 44%
    19:00 +24°C° 0 mm 2 m/S 748 mmHg 47%
    20:00 +24°C° 0 mm 2 m/S 749 mmHg 50%
    21:00 +23°C° 0 mm 2 m/S 750 mmHg 53%
    22:00 +21°C° 0 mm 2 m/S 749 mmHg 54%
    23:00 +21°C° 0 mm 2 m/S 749 mmHg 56%

    26 Mai, Samstag

    Zeit Temperatur Niederschläge Wind Luftdruck Luftfeuchtigkeit
    00:00 +21°C° 0 mm 2 m/S 749 mmHg 57%
    01:00 +20°C° 0 mm 2 m/S 749 mmHg 60%
    02:00 +20°C° 0 mm 2 m/S 749 mmHg 62%
    03:00 +19°C° 0 mm 2 m/S 748 mmHg 65%
    04:00 +20°C° 0 mm 2 m/S 748 mmHg 64%
    05:00 +20°C° 0 mm 2 m/S 749 mmHg 63%
    06:00 +20°C° 0 mm 2 m/S 749 mmHg 62%
    07:00 +23°C° 0 mm 2 m/S 749 mmHg 56%
    08:00 +24°C° 0 mm 2 m/S 749 mmHg 50%
    09:00 +26°C° 0 mm 2 m/S 749 mmHg 43%
    10:00 +27°C° 0 mm 3 m/S 749 mmHg 42%
    11:00 +28°C° 0 mm 4 m/S 749 mmHg 40%
    12:00 +29°C° 0 mm 4 m/S 748 mmHg 38%
    13:00 +29°C° 0,1 mm 4 m/S 748 mmHg 40%
    14:00 +29°C° 0,1 mm 4 m/S 748 mmHg 42%
    15:00 +28°C° 0,1 mm 4 m/S 748 mmHg 44%
    16:00 +27°C° 0,2 mm 3 m/S 748 mmHg 45%
    17:00 +27°C° 0,2 mm 3 m/S 748 mmHg 47%
    18:00 +26°C° 0,2 mm 2 m/S 748 mmHg 48%
    19:00 +25°C° 0 mm 2 m/S 748 mmHg 52%
    20:00 +24°C° 0 mm 1 m/S 749 mmHg 55%
    21:00 +23°C° 0 mm 1 m/S 749 mmHg 59%
    22:00 +23°C° 0,1 mm 1 m/S 749 mmHg 61%
    23:00 +22°C° 0,1 mm 1 m/S 749 mmHg 62%

    27 Mai, Sonntag

    Zeit Temperatur Niederschläge Wind Luftdruck Luftfeuchtigkeit
    00:00 +22°C° 0,1 mm 1 m/S 749 mmHg 64%
    01:00 +22°C° 0 mm 1 m/S 749 mmHg 66%
    02:00 +21°C° 0 mm 1 m/S 748 mmHg 68%
    03:00 +21°C° 0 mm 1 m/S 748 mmHg 70%
    04:00 +21°C° 0 mm 1 m/S 748 mmHg 70%
    05:00 +21°C° 0 mm 1 m/S 748 mmHg 70%
    06:00 +21°C° 0 mm 1 m/S 749 mmHg 69%
    07:00 +21°C° 0 mm 2 m/S 749 mmHg 64%
    08:00 +24°C° 0 mm 2 m/S 749 mmHg 59%
    09:00 +25°C° 0 mm 2 m/S 749 mmHg 54%
    10:00 +26°C° 0,1 mm 3 m/S 749 mmHg 52%
    11:00 +27°C° 0,1 mm 4 m/S 748 mmHg 51%
    12:00 +27°C° 0,1 mm 5 m/S 748 mmHg 49%
    13:00 +27°C° 0,1 mm 5 m/S 748 mmHg 49%
    14:00 +27°C° 0,1 mm 5 m/S 748 mmHg 50%
    15:00 +27°C° 0,1 mm 5 m/S 748 mmHg 50%
    16:00 +26°C° 0 mm 5 m/S 748 mmHg 52%
    17:00 +25°C° 0 mm 4 m/S 748 mmHg 55%
    18:00 +23°C° 0 mm 4 m/S 748 mmHg 57%
    19:00 +23°C° 0 mm 4 m/S 749 mmHg 60%
    20:00 +22°C° 0 mm 4 m/S 749 mmHg 63%
    21:00 +21°C° 0 mm 4 m/S 750 mmHg 66%
    22:00 +21°C° 0 mm 4 m/S 750 mmHg 66%
    23:00 +21°C° 0 mm 4 m/S 750 mmHg 65%
    Mehr zeigen